Time,TemperatureF,DewpointF,PressureIn,WindDirection,WindDirectionDegrees,WindSpeedMPH,WindSpeedGustMPH,Humidity,HourlyPrecipIn,Conditions,Clouds,dailyrainin,SoftwareType,DateUTC
2013-07-09 00:00:00,71.2,61.8,29.85,North,11,1.8,1.8,72,0.00,,,0.00,VWS V14.01,2013-07-09 04:00:00,
2013-07-09 00:01:00,71.2,61.8,29.85,North,11,1.8,1.8,72,0.00,,,0.00,VWS V14.01,2013-07-09 04:01:00,
2013-07-09 00:02:00,71.1,61.6,29.85,North,11,1.8,1.8,72,0.00,,,0.00,VWS V14.01,2013-07-09 04:02:00,
2013-07-09 00:07:00,71.1,61.6,29.85,North,11,1.8,1.8,72,0.00,,,0.00,VWS V14.01,2013-07-09 04:07:00,
2013-07-09 00:12:00,71.1,61.6,29.85,North,11,1.8,1.8,72,0.00,,,0.00,VWS V14.01,2013-07-09 04:12:00,
2013-07-09 00:17:00,71.1,61.6,29.85,North,11,1.8,1.8,72,0.00,,,0.00,VWS V14.01,2013-07-09 04:17:00,
2013-07-09 00:22:00,71.1,62.0,29.85,North,11,1.8,1.8,73,0.00,,,0.00,VWS V14.01,2013-07-09 04:22:00,
2013-07-09 00:27:00,71.1,62.0,29.85,North,11,1.8,1.8,73,0.00,,,0.00,VWS V14.01,2013-07-09 04:27:00,
2013-07-09 00:32:00,71.2,62.2,29.85,North,11,1.8,1.8,73,0.00,,,0.00,VWS V14.01,2013-07-09 04:32:00,
2013-07-09 00:37:00,71.2,62.2,29.85,North,11,1.8,1.8,73,0.00,,,0.00,VWS V14.01,2013-07-09 04:37:00,
2013-07-09 00:42:00,71.2,62.2,29.85,North,11,1.8,1.8,73,0.00,,,0.00,VWS V14.01,2013-07-09 04:42:00,
2013-07-09 00:47:00,71.2,62.2,29.85,North,11,1.8,1.8,73,0.00,,,0.00,VWS V14.01,2013-07-09 04:47:00,
2013-07-09 00:52:00,71.2,62.2,29.83,North,11,1.8,1.8,73,0.00,,,0.00,VWS V14.01,2013-07-09 04:52:00,
2013-07-09 00:57:00,71.2,62.2,29.83,North,11,1.8,1.8,73,0.00,,,0.00,VWS V14.01,2013-07-09 04:57:00,
2013-07-09 01:00:00,71.2,61.8,29.85,North,11,1.8,5.8,72,0.00,,,0.00,VWS V15.00,2013-07-09 05:00:00,
2013-07-09 01:02:00,71.4,62.7,29.83,North,11,1.8,1.8,74,0.00,,,0.00,VWS V14.01,2013-07-09 05:02:00,
2013-07-09 01:07:00,71.4,62.7,29.83,North,11,1.8,1.8,74,0.00,,,0.00,VWS V14.01,2013-07-09 05:07:00,
2013-07-09 01:12:00,71.4,62.7,29.83,North,11,1.8,1.8,74,0.00,,,0.00,VWS V14.01,2013-07-09 05:12:00,
2013-07-09 01:17:00,71.4,62.7,29.83,North,11,1.8,1.8,74,0.00,,,0.00,VWS V14.01,2013-07-09 05:17:00,
2013-07-09 01:22:00,71.2,62.5,29.83,North,11,1.8,1.8,74,0.00,,,0.00,VWS V14.01,2013-07-09 05:22:00,
2013-07-09 01:27:00,71.2,62.5,29.83,North,11,1.8,1.8,74,0.00,,,0.00,VWS V14.01,2013-07-09 05:27:00,
2013-07-09 01:32:00,71.1,62.4,29.83,North,11,1.8,1.8,74,0.00,,,0.00,VWS V14.01,2013-07-09 05:32:00,
2013-07-09 01:37:00,70.9,62.2,29.83,North,11,1.8,1.8,74,0.00,,,0.00,VWS V14.01,2013-07-09 05:37:00,
2013-07-09 01:42:00,70.9,62.2,29.83,North,11,1.8,1.8,74,0.00,,,0.00,VWS V14.01,2013-07-09 05:42:00,
2013-07-09 01:47:00,70.7,62.0,29.83,North,11,1.8,1.8,74,0.00,,,0.00,VWS V14.01,2013-07-09 05:47:00,
2013-07-09 01:52:00,70.9,62.6,29.83,North,11,1.8,1.8,75,0.00,,,0.00,VWS V14.01,2013-07-09 05:52:00,
2013-07-09 01:57:00,71.1,63.1,29.83,North,11,1.8,1.8,76,0.00,,,0.00,VWS V14.01,2013-07-09 05:57:00,
2013-07-09 02:00:00,71.4,62.3,29.83,North,11,1.8,1.8,73,0.00,,,0.00,VWS V15.00,2013-07-09 06:00:00,
2013-07-09 02:02:00,71.2,63.3,29.83,North,11,1.8,1.8,76,0.00,,,0.00,VWS V14.01,2013-07-09 06:02:00,
2013-07-09 02:07:00,71.4,63.5,29.83,West,277,5.8,5.8,76,0.00,,,0.00,VWS V14.01,2013-07-09 06:07:00,
2013-07-09 02:12:00,71.6,63.6,29.83,West,274,1.8,5.8,76,0.00,,,0.00,VWS V14.01,2013-07-09 06:12:00,
2013-07-09 02:17:00,71.6,63.6,29.83,NW,319,4.4,5.8,76,0.00,,,0.00,VWS V14.01,2013-07-09 06:17:00,
2013-07-09 02:22:00,71.6,64.0,29.83,WNW,286,1.8,6.7,77,0.00,,,0.00,VWS V14.01,2013-07-09 06:22:00,
2013-07-09 02:27:00,71.6,64.0,29.83,NNW,337,1.8,6.7,77,0.00,,,0.00,VWS V14.01,2013-07-09 06:27:00,
2013-07-09 02:32:00,71.6,64.0,29.83,NNW,337,1.8,6.7,77,0.00,,,0.00,VWS V14.01,2013-07-09 06:32:00,
2013-07-09 02:37:00,71.6,64.0,29.85,NE,48,1.8,6.7,77,0.00,,,0.00,VWS V14.01,2013-07-09 06:37:00,
2013-07-09 02:42:00,71.4,63.8,29.85,NE,56,1.8,6.7,77,0.00,,,0.00,VWS V14.01,2013-07-09 06:42:00,
2013-07-09 02:47:00,71.1,63.5,29.85,NE,56,1.8,6.7,77,0.00,,,0.00,VWS V14.01,2013-07-09 06:47:00,
2013-07-09 02:52:00,70.9,63.3,29.85,East,85,1.8,6.7,77,0.00,,,0.00,VWS V14.01,2013-07-09 06:52:00,
2013-07-09 02:57:00,70.9,63.0,29.85,East,85,1.8,6.7,76,0.00,,,0.00,VWS V14.01,2013-07-09 06:57:00,
2013-07-09 03:00:00,71.1,63.1,29.83,North,11,1.8,1.8,76,0.00,,,0.00,VWS V15.00,2013-07-09 07:00:00,
2013-07-09 03:02:00,70.7,62.8,29.85,ENE,72,4.4,7.6,76,0.00,,,0.00,VWS V14.01,2013-07-09 07:02:00,
2013-07-09 03:07:00,70.5,62.6,29.83,ENE,70,4.4,7.6,76,0.00,,,0.00,VWS V14.01,2013-07-09 07:07:00,
2013-07-09 03:12:00,70.3,62.4,29.83,ENE,70,4.0,7.6,76,0.00,,,0.00,VWS V14.01,2013-07-09 07:12:00,
2013-07-09 03:17:00,70.3,62.4,29.83,ENE,78,4.9,7.6,76,0.00,,,0.00,VWS V14.01,2013-07-09 07:17:00,
2013-07-09 03:22:00,70.2,62.2,29.83,ENE,78,5.8,7.6,76,0.00,,,0.00,VWS V14.01,2013-07-09 07:22:00,
2013-07-09 03:27:00,70.2,62.2,29.83,ENE,78,4.9,7.6,76,0.00,,,0.00,VWS V14.01,2013-07-09 07:27:00,
2013-07-09 03:32:00,70.0,62.1,29.83,East,90,5.8,7.6,76,0.00,,,0.00,VWS V14.01,2013-07-09 07:32:00,
2013-07-09 03:37:00,69.8,61.9,29.83,East,83,7.1,7.6,76,0.00,,,0.00,VWS V14.01,2013-07-09 07:37:00,
2013-07-09 03:42:00,69.8,61.9,29.83,ENE,69,1.8,7.6,76,0.00,,,0.00,VWS V14.01,2013-07-09 07:42:00,
2013-07-09 03:47:00,69.8,61.9,29.83,ENE,69,1.8,7.6,76,0.00,,,0.00,VWS V14.01,2013-07-09 07:47:00,
2013-07-09 03:52:00,69.8,61.9,29.83,ESE,109,4.4,7.6,76,0.00,,,0.00,VWS V14.01,2013-07-09 07:52:00,
2013-07-09 03:57:00,69.6,61.7,29.83,ESE,109,1.8,7.6,76,0.00,,,0.00,VWS V14.01,2013-07-09 07:57:00,
2013-07-09 04:00:00,70.7,63.1,29.85,ESE,112,1.8,6.7,77,0.00,,,0.00,VWS V15.00,2013-07-09 08:00:00,
2013-07-09 04:02:00,69.6,61.7,29.83,ESE,109,1.8,1.8,76,0.00,,,0.00,VWS V14.01,2013-07-09 08:02:00,
2013-07-09 04:07:00,69.6,61.7,29.83,ESE,109,1.8,5.3,76,0.00,,,0.00,VWS V14.01,2013-07-09 08:07:00,
2013-07-09 04:12:00,69.6,61.7,29.83,ESE,109,1.8,5.3,76,0.00,,,0.00,VWS V14.01,2013-07-09 08:12:00,
2013-07-09 04:17:00,69.6,61.7,29.83,ESE,109,1.8,5.3,76,0.00,,,0.00,VWS V14.01,2013-07-09 08:17:00,
2013-07-09 04:22:00,69.8,61.9,29.83,ESE,121,5.8,5.8,76,0.00,,,0.00,VWS V14.01,2013-07-09 08:22:00,
2013-07-09 04:27:00,69.8,61.9,29.83,ESE,120,1.8,5.8,76,0.00,,,0.00,VWS V14.01,2013-07-09 08:27:00,
2013-07-09 04:32:00,69.8,61.9,29.83,ESE,120,1.8,5.8,76,0.00,,,0.00,VWS V14.01,2013-07-09 08:32:00,
2013-07-09 04:37:00,69.8,61.9,29.83,ESE,120,1.8,5.8,76,0.00,,,0.00,VWS V14.01,2013-07-09 08:37:00,
2013-07-09 04:42:00,69.8,61.9,29.83,ESE,120,1.8,5.8,76,0.00,,,0.00,VWS V14.01,2013-07-09 08:42:00,
2013-07-09 04:47:00,69.8,61.9,29.83,ESE,120,1.8,5.8,76,0.00,,,0.00,VWS V14.01,2013-07-09 08:47:00,
2013-07-09 04:52:00,69.8,61.9,29.83,ESE,120,1.8,5.8,76,0.00,,,0.00,VWS V14.01,2013-07-09 08:52:00,
2013-07-09 04:57:00,69.8,61.9,29.83,ESE,120,1.8,5.8,76,0.00,,,0.00,VWS V14.01,2013-07-09 08:57:00,
2013-07-09 05:00:00,69.6,61.7,29.83,ESE,109,1.8,7.6,76,0.00,,,0.00,VWS V15.00,2013-07-09 09:00:00,
2013-07-09 05:02:00,69.8,61.9,29.83,ESE,120,1.8,1.8,76,0.00,,,0.00,VWS V14.01,2013-07-09 09:02:00,
2013-07-09 05:07:00,69.8,61.9,29.83,ESE,120,1.8,4.9,76,0.00,,,0.00,VWS V14.01,2013-07-09 09:07:00,
2013-07-09 05:12:00,69.8,61.9,29.83,ESE,120,1.8,5.3,76,0.00,,,0.00,VWS V14.01,2013-07-09 09:12:00,
2013-07-09 05:17:00,69.8,61.9,29.83,ESE,118,1.8,5.3,76,0.00,,,0.00,VWS V14.01,2013-07-09 09:17:00,
2013-07-09 05:22:00,69.6,61.7,29.85,ESE,109,1.8,5.8,76,0.00,,,0.00,VWS V14.01,2013-07-09 09:22:00,
2013-07-09 05:27:00,69.6,61.7,29.85,ESE,109,1.8,5.8,76,0.00,,,0.00,VWS V14.01,2013-07-09 09:27:00,
2013-07-09 05:32:00,69.4,61.9,29.85,East,81,4.0,6.7,77,0.00,,,0.00,VWS V14.01,2013-07-09 09:32:00,
2013-07-09 05:37:00,69.4,61.9,29.85,NE,46,4.4,6.7,77,0.00,,,0.00,VWS V14.01,2013-07-09 09:37:00,
2013-07-09 05:42:00,69.3,61.8,29.85,East,81,1.8,6.7,77,0.00,,,0.00,VWS V14.01,2013-07-09 09:42:00,
2013-07-09 05:47:00,69.1,61.6,29.85,ENE,60,4.9,7.6,77,0.00,,,0.00,VWS V14.01,2013-07-09 09:47:00,
2013-07-09 05:52:00,68.9,61.4,29.85,East,87,4.0,7.6,77,0.00,,,0.00,VWS V14.01,2013-07-09 09:52:00,
2013-07-09 05:57:00,68.9,61.4,29.85,East,81,7.1,7.6,77,0.00,,,0.00,VWS V14.01,2013-07-09 09:57:00,
2013-07-09 06:00:00,69.8,61.9,29.83,ESE,120,1.8,5.8,76,0.00,,,0.00,VWS V15.00,2013-07-09 10:00:00,
2013-07-09 06:02:00,68.7,61.2,29.85,NE,49,4.4,6.7,77,0.00,,,0.00,VWS V14.01,2013-07-09 10:02:00,
2013-07-09 06:07:00,68.7,61.2,29.85,ENE,71,5.8,7.6,77,0.00,,,0.00,VWS V14.01,2013-07-09 10:07:00,
2013-07-09 06:12:00,68.7,61.6,29.85,ENE,68,4.9,8.0,78,0.00,,,0.00,VWS V14.01,2013-07-09 10:12:00,
2013-07-09 06:17:00,68.7,61.6,29.85,NE,45,1.8,8.0,78,0.00,,,0.00,VWS V14.01,2013-07-09 10:17:00,
2013-07-09 06:22:00,68.7,61.6,29.88,SE,138,7.1,8.0,78,0.00,,,0.00,VWS V14.01,2013-07-09 10:22:00,
2013-07-09 06:27:00,68.9,61.8,29.88,East,84,5.8,8.0,78,0.00,,,0.00,VWS V14.01,2013-07-09 10:27:00,
2013-07-09 06:32:00,68.9,61.8,29.88,East,84,1.8,8.0,78,0.00,,,0.00,VWS V14.01,2013-07-09 10:32:00,
2013-07-09 06:37:00,68.9,61.8,29.88,East,88,4.9,8.5,78,0.00,,,0.00,VWS V14.01,2013-07-09 10:37:00,
2013-07-09 06:42:00,68.9,61.8,29.88,ESE,104,7.6,9.8,78,0.00,,,0.00,VWS V14.01,2013-07-09 10:42:00,
2013-07-09 06:47:00,69.1,61.9,29.88,East,86,1.8,9.8,78,0.00,,,0.00,VWS V14.01,2013-07-09 10:47:00,
2013-07-09 06:52:00,69.3,62.5,29.85,East,97,1.8,9.8,79,0.00,,,0.00,VWS V14.01,2013-07-09 10:52:00,
2013-07-09 06:57:00,69.4,62.7,29.85,ESE,114,4.4,9.8,79,0.00,,,0.00,VWS V14.01,2013-07-09 10:57:00,
2013-07-09 07:00:00,68.7,61.2,29.85,ESE,107,4.9,7.6,77,0.00,,,0.00,VWS V15.00,2013-07-09 11:00:00,
2013-07-09 07:02:00,69.6,62.8,29.85,ESE,121,5.3,5.3,79,0.00,,,0.00,VWS V14.01,2013-07-09 11:02:00,
2013-07-09 07:07:00,69.6,62.5,29.85,East,96,5.8,7.1,78,0.00,,,0.00,VWS V14.01,2013-07-09 11:07:00,
2013-07-09 07:12:00,69.4,62.3,29.85,SE,128,1.8,7.6,78,0.00,,,0.00,VWS V14.01,2013-07-09 11:12:00,
2013-07-09 07:17:00,69.6,62.5,29.85,East,95,4.9,7.6,78,0.00,,,0.00,VWS V14.01,2013-07-09 11:17:00,
2013-07-09 07:22:00,69.6,62.5,29.88,East,95,1.8,7.6,78,0.00,,,0.00,VWS V14.01,2013-07-09 11:22:00,
2013-07-09 07:27:00,69.8,62.6,29.88,East,95,1.8,7.6,78,0.00,,,0.00,VWS V14.01,2013-07-09 11:27:00,
2013-07-09 07:32:00,69.8,62.6,29.88,East,95,1.8,7.6,78,0.00,,,0.00,VWS V14.01,2013-07-09 11:32:00,
2013-07-09 07:37:00,70.0,62.8,29.88,East,95,1.8,7.6,78,0.00,,,0.00,VWS V14.01,2013-07-09 11:37:00,
2013-07-09 07:42:00,70.0,62.8,29.88,East,95,1.8,7.6,78,0.00,,,0.00,VWS V14.01,2013-07-09 11:42:00,
2013-07-09 07:47:00,70.0,62.8,29.88,East,93,1.8,7.6,78,0.00,,,0.00,VWS V14.01,2013-07-09 11:47:00,
2013-07-09 07:52:00,70.2,62.6,29.88,North,353,1.8,7.6,77,0.00,,,0.00,VWS V14.01,2013-07-09 11:52:00,
2013-07-09 07:57:00,70.3,62.8,29.88,North,353,1.8,7.6,77,0.00,,,0.00,VWS V14.01,2013-07-09 11:57:00,
2013-07-09 08:00:00,69.6,62.8,29.85,ESE,114,1.8,9.8,79,0.00,,,0.00,VWS V15.00,2013-07-09 12:00:00,
2013-07-09 08:02:00,70.2,62.6,29.88,North,353,1.8,1.8,77,0.00,,,0.00,VWS V14.01,2013-07-09 12:02:00,
2013-07-09 08:07:00,70.3,62.8,29.88,North,2,1.8,1.8,77,0.00,,,0.00,VWS V14.01,2013-07-09 12:07:00,
2013-07-09 08:12:00,70.3,62.8,29.88,North,2,1.8,1.8,77,0.00,,,0.00,VWS V14.01,2013-07-09 12:12:00,
2013-07-09 08:17:00,70.9,63.3,29.88,North,2,1.8,1.8,77,0.00,,,0.00,VWS V14.01,2013-07-09 12:17:00,
2013-07-09 08:22:00,71.2,63.7,29.88,North,2,1.8,5.3,77,0.00,,,0.00,VWS V14.01,2013-07-09 12:22:00,
2013-07-09 08:27:00,71.2,63.3,29.88,North,2,1.8,5.3,76,0.00,,,0.00,VWS V14.01,2013-07-09 12:27:00,
2013-07-09 08:32:00,71.1,63.1,29.88,North,2,1.8,5.3,76,0.00,,,0.00,VWS V14.01,2013-07-09 12:32:00,
2013-07-09 08:37:00,71.1,62.7,29.88,North,2,1.8,5.3,75,0.00,,,0.00,VWS V14.01,2013-07-09 12:37:00,
2013-07-09 08:42:00,71.6,63.6,29.88,North,2,4.4,5.3,76,0.00,,,0.00,VWS V14.01,2013-07-09 12:42:00,
2013-07-09 08:47:00,72.0,63.6,29.88,North,2,1.8,5.3,75,0.00,,,0.00,VWS V14.01,2013-07-09 12:47:00,
2013-07-09 08:52:00,72.1,63.4,29.88,North,2,4.9,5.3,74,0.00,,,0.00,VWS V14.01,2013-07-09 12:52:00,
2013-07-09 08:57:00,72.5,63.4,29.88,North,2,4.4,5.3,73,0.00,,,0.00,VWS V14.01,2013-07-09 12:57:00,
2013-07-09 09:00:00,70.2,62.6,29.88,North,353,1.8,7.6,77,0.00,,,0.00,VWS V15.00,2013-07-09 13:00:00,
2013-07-09 09:02:00,72.7,62.7,29.88,North,2,1.8,4.9,71,0.00,,,0.00,VWS V14.01,2013-07-09 13:02:00,
2013-07-09 09:07:00,72.7,61.9,29.88,NNE,26,4.0,5.3,69,0.00,,,0.00,VWS V14.01,2013-07-09 13:07:00,
2013-07-09 09:12:00,72.9,62.1,29.88,NE,37,4.0,5.3,69,0.00,,,0.00,VWS V14.01,2013-07-09 13:12:00,
2013-07-09 09:17:00,73.2,62.0,29.88,ENE,63,6.2,6.2,68,0.00,,,0.00,VWS V14.01,2013-07-09 13:17:00,
2013-07-09 09:22:00,73.8,62.1,29.88,East,98,4.0,7.1,67,0.00,,,0.00,VWS V14.01,2013-07-09 13:22:00,
2013-07-09 09:27:00,74.1,62.5,29.88,ENE,61,1.8,7.6,67,0.00,,,0.00,VWS V14.01,2013-07-09 13:27:00,
2013-07-09 09:32:00,74.5,62.0,29.88,North,0,4.0,7.6,65,0.00,,,0.00,VWS V14.01,2013-07-09 13:32:00,
2013-07-09 09:37:00,74.5,60.6,29.88,NNW,345,4.4,7.6,62,0.00,,,0.00,VWS V14.01,2013-07-09 13:37:00,
2013-07-09 09:42:00,74.7,60.8,29.88,NNE,21,1.8,7.6,62,0.00,,,0.00,VWS V14.01,2013-07-09 13:42:00,
2013-07-09 09:47:00,74.7,60.3,29.88,North,5,1.8,7.6,61,0.00,,,0.00,VWS V14.01,2013-07-09 13:47:00,
2013-07-09 09:52:00,74.8,60.0,29.88,North,1,4.4,7.6,60,0.00,,,0.00,VWS V14.01,2013-07-09 13:52:00,
2013-07-09 09:57:00,75.0,59.3,29.88,East,79,5.3,7.6,58,0.00,,,0.00,VWS V14.01,2013-07-09 13:57:00,
2013-07-09 10:00:00,72.5,63.0,29.88,North,2,1.8,5.3,72,0.00,,,0.00,VWS V15.00,2013-07-09 14:00:00,
2013-07-09 10:02:00,75.4,59.1,29.88,East,97,5.8,8.0,57,0.00,,,0.00,VWS V14.01,2013-07-09 14:02:00,
2013-07-09 10:07:00,75.9,59.1,29.88,East,83,1.8,8.0,56,0.00,,,0.00,VWS V14.01,2013-07-09 14:07:00,
2013-07-09 10:12:00,76.1,58.8,29.88,East,80,4.4,8.0,55,0.00,,,0.00,VWS V14.01,2013-07-09 14:12:00,
2013-07-09 10:17:00,76.1,57.8,29.88,NNW,338,1.8,8.0,53,0.00,,,0.00,VWS V14.01,2013-07-09 14:17:00,
2013-07-09 10:22:00,76.1,57.2,29.88,North,1,1.8,8.0,52,0.00,,,0.00,VWS V14.01,2013-07-09 14:22:00,
2013-07-09 10:27:00,76.3,57.4,29.88,North,1,1.8,8.0,52,0.00,,,0.00,VWS V14.01,2013-07-09 14:27:00,
2013-07-09 10:32:00,76.3,56.3,29.88,WNW,290,1.8,8.0,50,0.00,,,0.00,VWS V14.01,2013-07-09 14:32:00,
2013-07-09 10:37:00,76.3,56.3,29.88,NNW,348,4.4,8.0,50,0.00,,,0.00,VWS V14.01,2013-07-09 14:37:00,
2013-07-09 10:42:00,76.1,55.6,29.88,NNW,342,4.9,8.0,49,0.00,,,0.00,VWS V14.01,2013-07-09 14:42:00,
2013-07-09 10:47:00,76.5,55.9,29.88,North,353,4.9,8.0,49,0.00,,,0.00,VWS V14.01,2013-07-09 14:47:00,
2013-07-09 10:52:00,76.8,55.1,29.88,North,353,1.8,8.0,47,0.00,,,0.00,VWS V14.01,2013-07-09 14:52:00,
2013-07-09 10:57:00,77.2,54.8,29.88,North,2,4.4,8.0,46,0.00,,,0.00,VWS V14.01,2013-07-09 14:57:00,
2013-07-09 11:00:00,75.2,58.9,29.88,NE,48,8.0,8.0,57,0.00,,,0.00,VWS V15.00,2013-07-09 15:00:00,
2013-07-09 11:02:00,77.2,54.2,29.88,North,357,4.0,4.9,45,0.00,,,0.00,VWS V14.01,2013-07-09 15:02:00,
2013-07-09 11:07:00,77.5,55.2,29.88,NW,326,4.4,5.3,46,0.00,,,0.00,VWS V14.01,2013-07-09 15:07:00,
2013-07-09 11:12:00,77.2,53.6,29.88,North,350,4.9,5.8,44,0.00,,,0.00,VWS V14.01,2013-07-09 15:12:00,
2013-07-09 11:17:00,76.5,53.6,29.88,NNW,346,1.8,5.8,45,0.00,,,0.00,VWS V14.01,2013-07-09 15:17:00,
2013-07-09 11:22:00,76.3,54.0,29.88,NNW,341,4.4,7.1,46,0.00,,,0.00,VWS V14.01,2013-07-09 15:22:00,
2013-07-09 11:27:00,76.5,54.8,29.88,NW,326,5.8,7.6,47,0.00,,,0.00,VWS V14.01,2013-07-09 15:27:00,
2013-07-09 11:32:00,76.6,54.9,29.88,NNW,332,4.4,7.6,47,0.00,,,0.00,VWS V14.01,2013-07-09 15:32:00,
2013-07-09 11:37:00,76.8,55.1,29.88,North,10,7.6,7.6,47,0.00,,,0.00,VWS V14.01,2013-07-09 15:37:00,
2013-07-09 11:42:00,77.5,55.2,29.88,NNW,346,5.8,7.6,46,0.00,,,0.00,VWS V14.01,2013-07-09 15:42:00,
2013-07-09 11:47:00,78.1,55.6,29.88,North,353,1.8,7.6,46,0.00,,,0.00,VWS V14.01,2013-07-09 15:47:00,
2013-07-09 11:52:00,78.4,54.7,29.88,North,357,5.3,7.6,44,0.00,,,0.00,VWS V14.01,2013-07-09 15:52:00,
2013-07-09 11:57:00,78.1,53.8,29.88,NW,321,4.0,7.6,43,0.00,,,0.00,VWS V14.01,2013-07-09 15:57:00,
2013-07-09 12:00:00,77.2,54.2,29.88,NNW,341,4.9,8.0,45,0.00,,,0.00,VWS V15.00,2013-07-09 16:00:00,
2013-07-09 12:02:00,77.4,53.8,29.88,NNW,345,4.0,5.8,44,0.00,,,0.00,VWS V14.01,2013-07-09 16:02:00,
2013-07-09 12:07:00,77.0,53.4,29.88,WNW,289,1.8,5.8,44,0.00,,,0.00,VWS V14.01,2013-07-09 16:07:00,
2013-07-09 12:12:00,76.3,53.4,29.88,WNW,293,4.4,5.8,45,0.00,,,0.00,VWS V14.01,2013-07-09 16:12:00,
2013-07-09 12:17:00,75.2,53.0,29.88,WNW,285,4.0,5.8,46,0.00,,,0.00,VWS V14.01,2013-07-09 16:17:00,
2013-07-09 12:22:00,74.7,53.7,29.88,WNW,290,1.8,5.8,48,0.00,,,0.00,VWS V14.01,2013-07-09 16:22:00,
2013-07-09 12:27:00,74.5,54.6,29.88,WNW,290,1.8,5.8,50,0.00,,,0.00,VWS V14.01,2013-07-09 16:27:00,
2013-07-09 12:32:00,75.0,56.2,29.88,NW,318,1.8,5.8,52,0.00,,,0.00,VWS V14.01,2013-07-09 16:32:00,
2013-07-09 12:37:00,75.2,55.8,29.88,NNW,348,1.8,5.8,51,0.00,,,0.00,VWS V14.01,2013-07-09 16:37:00,
2013-07-09 12:42:00,75.4,56.0,29.88,North,0,4.0,5.8,51,0.00,,,0.00,VWS V14.01,2013-07-09 16:42:00,
2013-07-09 12:47:00,75.9,56.5,29.88,North,353,1.8,5.8,51,0.00,,,0.00,VWS V14.01,2013-07-09 16:47:00,
2013-07-09 12:52:00,76.5,57.0,29.88,ESE,103,1.8,5.8,51,0.00,,,0.00,VWS V14.01,2013-07-09 16:52:00,
2013-07-09 12:57:00,77.0,56.4,29.88,SE,125,1.8,7.1,49,0.00,,,0.00,VWS V14.01,2013-07-09 16:57:00,
2013-07-09 13:00:00,77.7,53.5,29.88,North,353,4.9,7.6,43,0.00,,,0.00,VWS V15.00,2013-07-09 17:00:00,
2013-07-09 13:02:00,77.4,56.7,29.88,ESE,103,4.9,4.9,49,0.00,,,0.00,VWS V14.01,2013-07-09 17:02:00,
2013-07-09 13:07:00,77.9,56.1,29.88,ESE,106,4.0,8.0,47,0.00,,,0.00,VWS V14.01,2013-07-09 17:07:00,
2013-07-09 13:12:00,79.0,55.2,29.88,East,82,1.8,8.0,44,0.00,,,0.00,VWS V14.01,2013-07-09 17:12:00,
2013-07-09 13:17:00,79.2,54.1,29.88,SE,131,4.4,8.0,42,0.00,,,0.00,VWS V14.01,2013-07-09 17:17:00,
2013-07-09 13:22:00,79.0,54.0,29.88,East,86,1.8,9.4,42,0.00,,,0.00,VWS V14.01,2013-07-09 17:22:00,
2013-07-09 13:27:00,78.4,52.1,29.88,East,85,1.8,9.4,40,0.00,,,0.00,VWS V14.01,2013-07-09 17:27:00,
2013-07-09 13:32:00,77.9,51.7,29.88,NE,56,4.9,9.4,40,0.00,,,0.00,VWS V14.01,2013-07-09 17:32:00,
2013-07-09 13:37:00,77.5,52.0,29.88,ENE,70,5.8,9.4,41,0.00,,,0.00,VWS V14.01,2013-07-09 17:37:00,
2013-07-09 13:42:00,77.4,51.8,29.88,East,81,4.4,9.4,41,0.00,,,0.00,VWS V14.01,2013-07-09 17:42:00,
2013-07-09 13:47:00,77.7,52.8,29.88,ENE,75,4.4,9.4,42,0.00,,,0.00,VWS V14.01,2013-07-09 17:47:00,
2013-07-09 13:52:00,78.8,52.5,29.88,East,84,4.0,9.4,40,0.00,,,0.00,VWS V14.01,2013-07-09 17:52:00,
2013-07-09 13:57:00,78.6,50.2,29.88,ENE,61,4.4,9.4,37,0.00,,,0.00,VWS V14.01,2013-07-09 17:57:00,
2013-07-09 14:00:00,77.0,56.4,29.88,ESE,122,1.8,7.1,49,0.00,,,0.00,VWS V15.00,2013-07-09 18:00:00,
2013-07-09 14:02:00,77.9,51.7,29.88,NE,34,1.8,4.9,40,0.00,,,0.00,VWS V14.01,2013-07-09 18:02:00,
2013-07-09 14:07:00,78.1,52.5,29.88,North,5,5.8,7.1,41,0.00,,,0.00,VWS V14.01,2013-07-09 18:07:00,
2013-07-09 14:12:00,78.6,53.0,29.88,East,85,1.8,7.6,41,0.00,,,0.00,VWS V14.01,2013-07-09 18:12:00,
2013-07-09 14:17:00,78.8,52.5,29.88,SE,137,4.4,7.6,40,0.00,,,0.00,VWS V14.01,2013-07-09 18:17:00,
2013-07-09 14:22:00,79.0,52.6,29.88,ESE,106,5.3,7.6,40,0.00,,,0.00,VWS V14.01,2013-07-09 18:22:00,
2013-07-09 14:27:00,78.6,51.6,29.88,NE,49,4.4,7.6,39,0.00,,,0.00,VWS V14.01,2013-07-09 18:27:00,
2013-07-09 14:32:00,78.8,52.5,29.88,NE,49,5.3,7.6,40,0.00,,,0.00,VWS V14.01,2013-07-09 18:32:00,
2013-07-09 14:37:00,78.8,52.5,29.88,East,91,6.7,7.6,40,0.00,,,0.00,VWS V14.01,2013-07-09 18:37:00,
2013-07-09 14:42:00,79.3,52.3,29.88,NE,35,4.9,7.6,39,0.00,,,0.00,VWS V14.01,2013-07-09 18:42:00,
2013-07-09 14:47:00,79.9,52.0,29.88,NNE,20,1.8,7.6,38,0.00,,,0.00,VWS V14.01,2013-07-09 18:47:00,
2013-07-09 14:48:00,79.9,52.0,29.88,NNE,20,1.8,7.6,38,0.00,,,0.00,VWS V14.01,2013-07-09 18:48:00,
2013-07-09 14:53:00,79.9,52.0,29.88,East,86,5.3,7.6,38,0.00,,,0.00,VWS V14.01,2013-07-09 18:53:00,
2013-07-09 14:58:00,79.3,50.8,29.88,North,353,1.8,7.6,37,0.00,,,0.00,VWS V14.01,2013-07-09 18:58:00,
2013-07-09 15:00:00,78.1,51.1,29.88,NNE,33,4.9,9.4,39,0.00,,,0.00,VWS V15.00,2013-07-09 19:00:00,
2013-07-09 15:03:00,79.3,51.5,29.88,NNE,15,1.8,1.8,38,0.00,,,0.00,VWS V14.01,2013-07-09 19:03:00,
2013-07-09 15:07:00,80.6,53.4,29.88,SSE,147,1.8,4.9,39,0.00,,,0.00,VWS V14.01,2013-07-09 19:07:00,
2013-07-09 15:12:00,81.0,51.5,29.88,East,90,4.9,5.8,36,0.00,,,0.00,VWS V14.01,2013-07-09 19:12:00,
2013-07-09 15:17:00,80.1,50.0,29.88,SE,130,1.8,5.8,35,0.00,,,0.00,VWS V14.01,2013-07-09 19:17:00,
2013-07-09 15:22:00,79.0,49.8,29.88,SE,130,1.8,5.8,36,0.00,,,0.00,VWS V14.01,2013-07-09 19:22:00,
2013-07-09 15:27:00,78.3,50.6,29.88,SE,130,1.8,5.8,38,0.00,,,0.00,VWS V14.01,2013-07-09 19:27:00,
2013-07-09 15:32:00,78.1,51.8,29.88,SE,130,1.8,5.8,40,0.00,,,0.00,VWS V14.01,2013-07-09 19:32:00,
2013-07-09 15:37:00,78.1,52.5,29.88,SE,129,1.8,5.8,41,0.00,,,0.00,VWS V14.01,2013-07-09 19:37:00,
2013-07-09 15:42:00,77.7,52.2,29.88,SE,145,1.8,5.8,41,0.00,,,0.00,VWS V14.01,2013-07-09 19:42:00,
2013-07-09 15:47:00,77.5,52.7,29.88,SE,140,5.3,6.2,42,0.00,,,0.00,VWS V14.01,2013-07-09 19:47:00,
2013-07-09 15:52:00,77.4,52.5,29.88,ESE,118,1.8,6.2,42,0.00,,,0.00,VWS V14.01,2013-07-09 19:52:00,
2013-07-09 15:57:00,77.4,52.5,29.88,North,0,1.8,6.2,42,0.00,,,0.00,VWS V14.01,2013-07-09 19:57:00,
2013-07-09 16:00:00,79.2,50.7,29.88,NNE,15,1.8,7.6,37,0.00,,,0.00,VWS V15.00,2013-07-09 20:00:00,
2013-07-09 16:02:00,77.4,53.1,29.88,North,0,1.8,1.8,43,0.00,,,0.00,VWS V14.01,2013-07-09 20:02:00,
2013-07-09 16:07:00,77.5,53.3,29.88,ENE,72,4.4,4.9,43,0.00,,,0.00,VWS V14.01,2013-07-09 20:07:00,
2013-07-09 16:12:00,77.9,53.6,29.88,ENE,72,1.8,5.3,43,0.00,,,0.00,VWS V14.01,2013-07-09 20:12:00,
2013-07-09 16:17:00,78.3,54.0,29.88,ESE,111,1.8,5.8,43,0.00,,,0.00,VWS V14.01,2013-07-09 20:17:00,
2013-07-09 16:22:00,78.4,54.1,29.88,ESE,113,1.8,5.8,43,0.00,,,0.00,VWS V14.01,2013-07-09 20:22:00,
2013-07-09 16:27:00,78.6,53.6,29.88,SE,137,1.8,5.8,42,0.00,,,0.00,VWS V14.01,2013-07-09 20:27:00,
2013-07-09 16:32:00,78.6,53.6,29.88,ESE,115,4.9,6.7,42,0.00,,,0.00,VWS V14.01,2013-07-09 20:32:00,
2013-07-09 16:37:00,78.6,53.6,29.85,SE,134,1.8,6.7,42,0.00,,,0.00,VWS V14.01,2013-07-09 20:37:00,
2013-07-09 16:42:00,78.4,53.5,29.85,East,100,1.8,6.7,42,0.00,,,0.00,VWS V14.01,2013-07-09 20:42:00,
2013-07-09 16:47:00,78.3,53.3,29.85,East,100,1.8,7.1,42,0.00,,,0.00,VWS V14.01,2013-07-09 20:47:00,
2013-07-09 16:52:00,78.3,53.3,29.85,East,95,1.8,7.1,42,0.00,,,0.00,VWS V14.01,2013-07-09 20:52:00,
2013-07-09 16:57:00,77.9,53.6,29.85,East,95,1.8,7.1,43,0.00,,,0.00,VWS V14.01,2013-07-09 20:57:00,
2013-07-09 17:00:00,77.4,52.5,29.88,North,0,1.8,6.2,42,0.00,,,0.00,VWS V15.00,2013-07-09 21:00:00,
2013-07-09 17:02:00,77.5,53.3,29.85,ENE,72,1.8,4.4,43,0.00,,,0.00,VWS V14.01,2013-07-09 21:02:00,
2013-07-09 17:07:00,77.0,53.4,29.85,ENE,72,1.8,4.4,44,0.00,,,0.00,VWS V14.01,2013-07-09 21:07:00,
2013-07-09 17:12:00,76.6,53.7,29.85,North,0,5.3,5.3,45,0.00,,,0.00,VWS V14.01,2013-07-09 21:12:00,
2013-07-09 17:17:00,76.1,53.2,29.85,NE,46,1.8,6.7,45,0.00,,,0.00,VWS V14.01,2013-07-09 21:17:00,
2013-07-09 17:22:00,75.9,53.7,29.85,NE,46,1.8,6.7,46,0.00,,,0.00,VWS V14.01,2013-07-09 21:22:00,
2013-07-09 17:27:00,75.7,54.1,29.85,East,82,4.0,6.7,47,0.00,,,0.00,VWS V14.01,2013-07-09 21:27:00,
2013-07-09 17:32:00,75.6,54.5,29.85,SE,142,5.3,7.1,48,0.00,,,0.00,VWS V14.01,2013-07-09 21:32:00,
2013-07-09 17:37:00,75.6,54.5,29.85,SE,138,4.4,7.1,48,0.00,,,0.00,VWS V14.01,2013-07-09 21:37:00,
2013-07-09 17:42:00,75.4,54.9,29.85,SE,129,1.8,7.1,49,0.00,,,0.00,VWS V14.01,2013-07-09 21:42:00,
2013-07-09 17:47:00,75.4,55.5,29.85,SE,138,5.3,7.1,50,0.00,,,0.00,VWS V14.01,2013-07-09 21:47:00,
2013-07-09 17:52:00,75.4,55.5,29.85,SE,130,5.8,8.0,50,0.00,,,0.00,VWS V14.01,2013-07-09 21:52:00,
2013-07-09 17:57:00,75.2,55.8,29.85,ESE,119,5.8,8.0,51,0.00,,,0.00,VWS V14.01,2013-07-09 21:57:00,
2013-07-09 18:00:00,77.7,53.5,29.85,East,95,1.8,7.1,43,0.00,,,0.00,VWS V15.00,2013-07-09 22:00:00,
2013-07-09 18:02:00,75.4,56.5,29.85,SSE,154,1.8,5.3,52,0.00,,,0.00,VWS V14.01,2013-07-09 22:02:00,
2013-07-09 18:07:00,75.6,57.2,29.85,SE,132,4.0,7.6,53,0.00,,,0.00,VWS V14.01,2013-07-09 22:07:00,
2013-07-09 18:12:00,76.1,58.3,29.85,ESE,109,4.9,7.6,54,0.00,,,0.00,VWS V14.01,2013-07-09 22:12:00,
2013-07-09 18:17:00,77.0,59.6,29.85,SE,137,1.8,7.6,55,0.00,,,0.00,VWS V14.01,2013-07-09 22:17:00,
2013-07-09 18:22:00,77.9,59.9,29.85,SE,134,4.4,7.6,54,0.00,,,0.00,VWS V14.01,2013-07-09 22:22:00,
2013-07-09 18:27:00,78.8,59.2,29.85,ESE,114,1.8,7.6,51,0.00,,,0.00,VWS V14.01,2013-07-09 22:27:00,
2013-07-09 18:32:00,80.1,58.0,29.85,ESE,119,5.8,7.6,47,0.00,,,0.00,VWS V14.01,2013-07-09 22:32:00,
2013-07-09 18:37:00,81.5,57.5,29.85,ESE,111,1.8,7.6,44,0.00,,,0.00,VWS V14.01,2013-07-09 22:37:00,
2013-07-09 18:42:00,83.5,57.3,29.85,ESE,111,5.3,7.6,41,0.00,,,0.00,VWS V14.01,2013-07-09 22:42:00,
2013-07-09 18:47:00,83.8,54.1,29.85,ESE,111,1.8,7.6,36,0.00,,,0.00,VWS V14.01,2013-07-09 22:47:00,
2013-07-09 18:52:00,81.3,51.8,29.85,East,97,5.3,7.6,36,0.00,,,0.00,VWS V14.01,2013-07-09 22:52:00,
2013-07-09 18:57:00,79.0,52.6,29.85,East,96,1.8,8.0,40,0.00,,,0.00,VWS V14.01,2013-07-09 22:57:00,
2013-07-09 19:00:00,75.2,56.4,29.85,SE,137,5.3,8.0,52,0.00,,,0.00,VWS V15.00,2013-07-09 23:00:00,
2013-07-09 19:02:00,77.5,52.7,29.85,ENE,75,5.8,7.1,42,0.00,,,0.00,VWS V14.01,2013-07-09 23:02:00,
2013-07-09 19:07:00,76.6,53.7,29.85,SE,124,1.8,7.1,45,0.00,,,0.00,VWS V14.01,2013-07-09 23:07:00,
2013-07-09 19:12:00,75.7,54.1,29.85,SE,124,1.8,7.1,47,0.00,,,0.00,VWS V14.01,2013-07-09 23:12:00,
2013-07-09 19:17:00,75.2,54.8,29.85,ESE,121,4.0,7.1,49,0.00,,,0.00,VWS V14.01,2013-07-09 23:17:00,
2013-07-09 19:22:00,74.7,55.3,29.85,ESE,119,1.8,7.1,51,0.00,,,0.00,VWS V14.01,2013-07-09 23:22:00,
2013-07-09 19:27:00,74.3,56.1,29.85,ESE,118,1.8,7.1,53,0.00,,,0.00,VWS V14.01,2013-07-09 23:27:00,
2013-07-09 19:32:00,73.9,56.8,29.85,SE,145,4.9,7.1,55,0.00,,,0.00,VWS V14.01,2013-07-09 23:32:00,
2013-07-09 19:37:00,73.8,57.1,29.85,East,98,6.2,7.1,56,0.00,,,0.00,VWS V14.01,2013-07-09 23:37:00,
2013-07-09 19:42:00,73.6,57.9,29.85,East,98,1.8,7.1,58,0.00,,,0.00,VWS V14.01,2013-07-09 23:42:00,
2013-07-09 19:47:00,73.4,58.2,29.85,East,98,1.8,7.1,59,0.00,,,0.00,VWS V14.01,2013-07-09 23:47:00,
2013-07-09 19:52:00,73.2,58.5,29.85,East,98,1.8,7.1,60,0.00,,,0.00,VWS V14.01,2013-07-09 23:52:00,
2013-07-09 19:57:00,73.0,58.8,29.85,East,97,5.3,7.1,61,0.00,,,0.00,VWS V14.01,2013-07-09 23:57:00,
2013-07-09 20:00:00,78.3,52.7,29.85,ENE,63,7.1,8.0,41,0.00,,,0.00,VWS V15.00,2013-07-10 00:00:00,
2013-07-09 20:02:00,72.9,58.6,29.85,East,91,1.8,5.8,61,0.00,,,0.00,VWS V14.01,2013-07-10 00:02:00,
2013-07-09 20:07:00,72.7,58.9,29.85,ESE,109,1.8,6.7,62,0.00,,,0.00,VWS V14.01,2013-07-10 00:07:00,
2013-07-09 20:12:00,72.5,58.8,29.85,East,100,1.8,6.7,62,0.00,,,0.00,VWS V14.01,2013-07-10 00:12:00,
2013-07-09 20:17:00,72.5,59.2,29.85,ESE,122,4.0,6.7,63,0.00,,,0.00,VWS V14.01,2013-07-10 00:17:00,
2013-07-09 20:22:00,72.3,59.0,29.85,East,99,4.4,7.1,63,0.00,,,0.00,VWS V14.01,2013-07-10 00:22:00,
2013-07-09 20:27:00,72.1,59.3,29.85,East,99,1.8,7.1,64,0.00,,,0.00,VWS V14.01,2013-07-10 00:27:00,
2013-07-09 20:32:00,72.1,59.3,29.85,ESE,106,4.9,7.1,64,0.00,,,0.00,VWS V14.01,2013-07-10 00:32:00,
2013-07-09 20:37:00,72.0,59.6,29.85,SE,138,5.8,7.1,65,0.00,,,0.00,VWS V14.01,2013-07-10 00:37:00,
2013-07-09 20:42:00,71.8,59.4,29.85,ENE,64,4.0,8.0,65,0.00,,,0.00,VWS V14.01,2013-07-10 00:42:00,
2013-07-09 20:47:00,71.6,59.2,29.85,ESE,111,1.8,8.0,65,0.00,,,0.00,VWS V14.01,2013-07-10 00:47:00,
2013-07-09 20:52:00,71.4,59.5,29.85,ESE,102,4.0,10.0,66,0.00,,,0.00,VWS V14.01,2013-07-10 00:52:00,
2013-07-09 20:57:00,71.2,59.3,29.85,SE,142,8.0,10.5,66,0.00,,,0.00,VWS V14.01,2013-07-10 00:57:00,
2013-07-09 21:00:00,73.0,58.8,29.85,SE,144,5.3,7.1,61,0.00,,,0.00,VWS V15.00,2013-07-10 01:00:00,
2013-07-09 21:02:00,71.1,59.1,29.85,ESE,109,6.7,7.1,66,0.00,,,0.00,VWS V14.01,2013-07-10 01:02:00,
2013-07-09 21:07:00,70.9,59.0,29.88,ESE,121,5.8,9.8,66,0.00,,,0.00,VWS V14.01,2013-07-10 01:07:00,
2013-07-09 21:12:00,70.7,59.2,29.88,SE,131,4.9,10.0,67,0.00,,,0.00,VWS V14.01,2013-07-10 01:12:00,
2013-07-09 21:17:00,70.7,59.2,29.88,ESE,121,4.9,10.0,67,0.00,,,0.00,VWS V14.01,2013-07-10 01:17:00,
2013-07-09 21:22:00,70.7,59.2,29.88,ESE,121,1.8,10.0,67,0.00,,,0.00,VWS V14.01,2013-07-10 01:22:00,
2013-07-09 21:27:00,70.5,59.0,29.88,ESE,121,7.6,10.0,67,0.00,,,0.00,VWS V14.01,2013-07-10 01:27:00,
2013-07-09 21:32:00,70.5,59.0,29.88,SE,126,1.8,10.0,67,0.00,,,0.00,VWS V14.01,2013-07-10 01:32:00,
2013-07-09 21:37:00,70.5,59.5,29.88,ESE,115,1.8,10.0,68,0.00,,,0.00,VWS V14.01,2013-07-10 01:37:00,
2013-07-09 21:42:00,70.5,59.5,29.88,ESE,122,5.3,10.0,68,0.00,,,0.00,VWS V14.01,2013-07-10 01:42:00,
2013-07-09 21:47:00,70.5,59.5,29.88,ESE,105,4.4,10.0,68,0.00,,,0.00,VWS V14.01,2013-07-10 01:47:00,
2013-07-09 21:52:00,70.5,59.5,29.88,SE,127,5.3,10.0,68,0.00,,,0.00,VWS V14.01,2013-07-10 01:52:00,
2013-07-09 21:57:00,70.5,59.5,29.88,ESE,116,5.8,10.0,68,0.00,,,0.00,VWS V14.01,2013-07-10 01:57:00,
2013-07-09 22:00:00,71.1,59.1,29.85,ESE,105,5.8,10.5,66,0.00,,,0.00,VWS V15.00,2013-07-10 02:00:00,
2013-07-09 22:02:00,70.3,59.3,29.88,SSE,152,5.3,6.7,68,0.00,,,0.00,VWS V14.01,2013-07-10 02:02:00,
2013-07-09 22:07:00,70.3,59.3,29.85,ESE,112,4.0,8.0,68,0.00,,,0.00,VWS V14.01,2013-07-10 02:07:00,
2013-07-09 22:12:00,70.3,59.3,29.85,SE,134,6.7,8.0,68,0.00,,,0.00,VWS V14.01,2013-07-10 02:12:00,
2013-07-09 22:17:00,70.2,59.5,29.85,SE,135,1.8,8.0,69,0.00,,,0.00,VWS V14.01,2013-07-10 02:17:00,
2013-07-09 22:22:00,70.2,59.5,29.85,ESE,121,4.9,8.0,69,0.00,,,0.00,VWS V14.01,2013-07-10 02:22:00,
2013-07-09 22:27:00,70.0,59.3,29.85,ESE,116,7.6,10.0,69,0.00,,,0.00,VWS V14.01,2013-07-10 02:27:00,
2013-07-09 22:32:00,70.0,59.3,29.85,SE,133,4.4,10.0,69,0.00,,,0.00,VWS V14.01,2013-07-10 02:32:00,
2013-07-09 22:37:00,70.0,59.8,29.85,SE,127,5.3,10.0,70,0.00,,,0.00,VWS V14.01,2013-07-10 02:37:00,
2013-07-09 22:42:00,70.0,59.8,29.85,SE,143,5.3,10.0,70,0.00,,,0.00,VWS V14.01,2013-07-10 02:42:00,
2013-07-09 22:47:00,70.0,59.8,29.85,SE,131,5.3,10.0,70,0.00,,,0.00,VWS V14.01,2013-07-10 02:47:00,
2013-07-09 22:52:00,70.0,59.8,29.88,SE,131,4.4,10.0,70,0.00,,,0.00,VWS V14.01,2013-07-10 02:52:00,
2013-07-09 22:57:00,70.2,60.3,29.88,ESE,122,4.9,10.0,71,0.00,,,0.00,VWS V14.01,2013-07-10 02:57:00,
2013-07-09 23:00:00,70.3,59.3,29.88,SE,126,4.9,10.0,68,0.00,,,0.00,VWS V15.00,2013-07-10 03:00:00,
2013-07-09 23:02:00,70.2,60.3,29.88,SE,128,4.4,6.2,71,0.00,,,0.00,VWS V14.01,2013-07-10 03:02:00,
2013-07-09 23:07:00,70.2,60.3,29.88,SSE,151,5.3,6.7,71,0.00,,,0.00,VWS V14.01,2013-07-10 03:07:00,
2013-07-09 23:12:00,70.2,60.3,29.88,ESE,116,4.0,8.0,71,0.00,,,0.00,VWS V14.01,2013-07-10 03:12:00,
2013-07-09 23:17:00,70.2,60.3,29.88,SSE,149,6.7,8.0,71,0.00,,,0.00,VWS V14.01,2013-07-10 03:17:00,
2013-07-09 23:22:00,70.2,60.3,29.85,SE,126,7.1,8.0,71,0.00,,,0.00,VWS V14.01,2013-07-10 03:22:00,
2013-07-09 23:27:00,70.2,60.7,29.85,SSE,151,7.6,9.4,72,0.00,,,0.00,VWS V14.01,2013-07-10 03:27:00,
2013-07-09 23:32:00,70.2,60.7,29.85,SE,145,4.9,9.4,72,0.00,,,0.00,VWS V14.01,2013-07-10 03:32:00,
2013-07-09 23:37:00,70.2,60.7,29.85,SE,136,5.3,9.4,72,0.00,,,0.00,VWS V14.01,2013-07-10 03:37:00,
2013-07-09 23:42:00,70.0,60.5,29.85,SE,143,4.9,9.4,72,0.00,,,0.00,VWS V14.01,2013-07-10 03:42:00,
2013-07-09 23:47:00,70.0,60.9,29.85,SE,141,4.4,9.4,73,0.00,,,0.00,VWS V14.01,2013-07-10 03:47:00,
2013-07-09 23:52:00,70.0,60.9,29.85,SSE,149,1.8,9.4,73,0.00,,,0.00,VWS V14.01,2013-07-10 03:52:00,
2013-07-09 23:57:00,70.0,60.9,29.85,ESE,118,1.8,9.4,73,0.00,,,0.00,VWS V14.01,2013-07-10 03:57:00,